TimeCST,TemperatureF,Dew PointF,Humidity,Sea Level PressureIn,VisibilityMPH,Wind Direction,Wind SpeedMPH,Gust SpeedMPH,PrecipitationIn,Events,Conditions,WindDirDegrees,DateUTC
12:53 AM,60.1,59.0,96,29.59,5.0,ESE,18.4,25.3,0.15,Rain,Heavy Rain,110,2013-02-26 06:53:00
1:53 AM,61.0,59.0,93,29.55,8.0,SE,15.0,21.9,0.16,Rain,Rain,130,2013-02-26 07:53:00
2:11 AM,60.8,60.8,100,29.58,5.0,SE,15.0,23.0,0.08,Rain,Heavy Rain,130,2013-02-26 08:11:00
2:21 AM,60.8,60.8,100,29.57,5.0,SE,18.4,25.3,0.12,Rain,Heavy Rain,140,2013-02-26 08:21:00
2:53 AM,62.1,61.0,96,29.55,4.0,SE,20.7,26.5,0.23,Rain,Heavy Rain,140,2013-02-26 08:53:00
2:56 AM,62.6,62.6,100,29.55,2.5,SE,20.7,26.5,0.06,Rain,Heavy Rain,140,2013-02-26 08:56:00
3:01 AM,62.6,62.6,100,29.55,3.0,SE,16.1,26.5,0.06,Rain,Rain,140,2013-02-26 09:01:00
3:27 AM,64.4,62.6,94,29.57,2.5,SSE,13.8,-,0.09,Rain,Rain,150,2013-02-26 09:27:00
3:34 AM,64.4,62.6,94,29.58,5.0,South,6.9,-,0.09,Rain,Light Rain,170,2013-02-26 09:34:00
3:46 AM,64.4,62.6,94,29.58,10.0,SW,5.8,-,0.09,Rain,Light Rain,230,2013-02-26 09:46:00
3:53 AM,64.0,63.0,96,29.55,10.0,SE,12.7,-,0.09,Rain,Light Rain,140,2013-02-26 09:53:00
4:37 AM,62.6,62.6,100,29.56,10.0,South,8.1,-,0.00,,Overcast,180,2013-02-26 10:37:00
4:53 AM,63.0,62.1,97,29.56,10.0,SSW,6.9,-,0.00,,Overcast,210,2013-02-26 10:53:00
5:27 AM,64.4,62.6,94,29.57,10.0,SW,8.1,-,N/A,,Overcast,220,2013-02-26 11:27:00
5:53 AM,63.0,62.1,97,29.59,10.0,SW,10.4,-,N/A,,Mostly Cloudy,230,2013-02-26 11:53:00
6:02 AM,62.6,60.8,94,29.60,10.0,WSW,10.4,-,N/A,,Mostly Cloudy,240,2013-02-26 12:02:00
6:53 AM,61.0,57.0,87,29.59,10.0,SW,12.7,20.7,N/A,,Clear,220,2013-02-26 12:53:00
7:53 AM,57.9,52.0,81,29.66,10.0,WSW,13.8,27.6,N/A,,Clear,240,2013-02-26 13:53:00
8:53 AM,59.0,48.9,69,29.68,10.0,WSW,12.7,23.0,N/A,,Clear,250,2013-02-26 14:53:00
9:53 AM,61.0,46.0,58,29.68,10.0,SW,17.3,26.5,N/A,,Partly Cloudy,230,2013-02-26 15:53:00
10:53 AM,61.0,44.1,54,29.71,10.0,WSW,18.4,27.6,N/A,,Partly Cloudy,240,2013-02-26 16:53:00
11:53 AM,64.0,45.0,50,29.69,10.0,WSW,13.8,24.2,N/A,,Clear,240,2013-02-26 17:53:00
12:53 PM,64.9,45.0,48,29.68,10.0,SW,18.4,24.2,N/A,,Clear,230,2013-02-26 18:53:00
1:53 PM,64.9,46.0,50,29.68,10.0,SW,16.1,27.6,N/A,,Partly Cloudy,220,2013-02-26 19:53:00
3:53 PM,60.1,45.0,57,29.69,10.0,SSW,17.3,26.5,N/A,,Clear,210,2013-02-26 21:53:00
4:53 PM,57.9,44.1,60,29.72,10.0,SW,15.0,23.0,N/A,,Clear,220,2013-02-26 22:53:00
5:53 PM,55.0,44.1,67,29.76,10.0,SW,16.1,20.7,N/A,,Clear,230,2013-02-26 23:53:00
6:53 PM,53.1,45.0,74,29.80,10.0,SW,10.4,-,N/A,,Clear,220,2013-02-27 00:53:00
7:53 PM,53.1,44.1,71,29.84,10.0,WSW,9.2,-,N/A,,Clear,240,2013-02-27 01:53:00
8:53 PM,52.0,44.1,74,29.87,10.0,WSW,9.2,-,N/A,,Clear,250,2013-02-27 02:53:00
9:53 PM,52.0,44.1,74,29.88,10.0,West,9.2,-,N/A,,Clear,260,2013-02-27 03:53:00
10:53 PM,51.1,43.0,74,29.90,10.0,West,10.4,-,N/A,,Clear,280,2013-02-27 04:53:00
11:53 PM,50.0,39.0,66,29.92,10.0,NW,10.4,-,N/A,,Clear,310,2013-02-27 05:53:00